DW2485 Weather Reports


Display with metric or nautical units.
time (UTC)temp
F
wind
direction
speed
MPH
gust
MPH
rain 1hr
in
rain 24hr
in
rain mn
in
humidity
%
barometer
mb
20260902000005 87 178 3.0 7.0 0.00 0.00 0.00 68 1014.1
20260901235505 87 184 3.0 7.0 0.00 0.00 0.00 68 1014.1
20260901235005 88 192 4.0 8.0 0.00 0.00 0.00 68 1014.2
20260901234505 88 195 6.0 10.0 0.00 0.00 0.00 68 1014.0
20260901234005 88 185 4.0 9.0 0.00 0.00 0.00 68 1014.0
20260901232005 90 182 5.0 8.0 0.00 0.00 0.00 66 1014.2
20260901230005 91 188 3.0 7.0 0.00 0.00 0.00 64 1014.0
20260901225505 91 189 5.0 10.0 0.00 0.00 0.00 63 1014.0
20260901225005 91 190 5.0 8.0 0.00 0.00 0.00 63 1014.0
20260901224505 91 202 5.0 6.0 0.00 0.00 0.00 63 1014.2
20260901222505 92 198 6.0 10.0 0.00 0.00 0.00 61 1014.2
20260901222005 92 194 5.0 8.0 0.00 0.00 0.00 60 1014.1
20260901221505 92 191 6.0 10.0 0.00 0.00 0.00 60 1014.3
20260901220505 93 190 3.0 8.0 0.00 0.00 0.00 62 1014.3
20260901215005 93 202 6.0 9.0 0.00 0.00 0.00 60 1014.2
20260901214505 93 182 7.0 10.0 0.00 0.00 0.00 60 1014.2
20260901213005 93 220 3.0 7.0 0.00 0.00 0.00 61 1014.2
20260901212504 93 197 3.0 6.0 0.00 0.00 0.00 60 1014.3
20260901212005 93 213 4.0 8.0 0.00 0.00 0.00 62 1014.3
20260901210505 94 174 3.0 7.0 0.00 0.00 0.00 60 1014.5
20260901210005 94 213 5.0 10.0 0.00 0.00 0.00 60 1014.4
20260901205505 94 222 4.0 8.0 0.00 0.00 0.00 62 1014.5
20260901205005 94 198 4.0 7.0 0.00 0.00 0.00 61 1014.6
20260901204505 94 184 3.0 7.0 0.00 0.00 0.00 62 1014.6
20260901202005 93 211 6.0 9.0 0.00 0.00 0.00 60 1014.8
20260901201505 93 211 6.0 9.0 0.00 0.00 0.00 62 1014.9
20260901201005 93 187 5.0 10.0 0.00 0.00 0.00 63 1014.9
20260901200005 93 208 4.0 6.0 0.00 0.00 0.00 65 1014.9
20260901195005 93 174 4.0 8.0 0.00 0.00 0.00 62 1014.9
20260901193505 93 174 6.0 10.0 0.00 0.00 0.00 61 1014.9
20260901193005 93 205 5.0 8.0 0.00 0.00 0.00 62 1015.0
20260901191504 93 186 3.0 10.0 0.00 0.00 0.00 63 1015.1
20260901190505 94 201 4.0 9.0 0.00 0.00 0.00 66 1015.0
20260901185505 93 196 5.0 10.0 0.00 0.00 0.00 67 1015.2
20260901185006 93 208 4.0 9.0 0.00 0.00 0.00 64 1015.3
20260901184005 93 186 5.0 9.0 0.00 0.00 0.00 66 1015.3
20260901183505 93 191 5.0 9.0 0.00 0.00 0.00 64 1015.3
20260901182505 92 212 5.0 7.0 0.00 0.00 0.00 67 1015.4
20260901182005 92 234 3.0 7.0 0.00 0.00 0.00 67 1015.4
20260901181005 92 224 5.0 7.0 0.00 0.00 0.00 71 1015.4
20260901180505 92 206 4.0 9.0 0.00 0.00 0.00 69 1015.4
20260901175005 91 228 5.0 7.0 0.00 0.00 0.00 67 1015.6
20260901174504 91 209 6.0 8.0 0.00 0.00 0.00 71 1015.7
20260901174006 91 183 5.0 10.0 0.00 0.00 0.00 69 1015.8
20260901173504 91 192 6.0 9.0 0.00 0.00 0.00 68 1015.9
20260901173005 91 183 6.0 9.0 0.00 0.00 0.00 69 1016.0
20260901172504 91 172 5.0 8.0 0.00 0.00 0.00 69 1015.9
20260901172005 91 185 4.0 7.0 0.00 0.00 0.00 70 1015.9
20260901171005 90 214 5.0 8.0 0.00 0.00 0.00 68 1015.9
20260901170004 91 235 3.0 7.0 0.00 0.00 0.00 71 1015.9
20260901165005 90 187 3.0 9.0 0.00 0.00 0.00 72 1015.9
20260901163506 90 220 4.0 8.0 0.00 0.00 0.00 71 1015.8
20260901163005 89 173 5.0 8.0 0.00 0.00 0.00 74 1015.8
20260901162005 90 186 5.0 7.0 0.00 0.00 0.00 75 1016.0
20260901161504 89 172 3.0 8.0 0.00 0.00 0.00 75 1016.0
20260901161017 89 184 4.0 8.0 0.00 0.00 0.00 75 1016.0
20260901155505 88 210 2.0 6.0 0.00 0.00 0.00 79 1015.9
20260901155005 88 157 3.0 7.0 0.00 0.00 0.00 80 1016.0
20260901154505 86 147 3.0 6.0 0.00 0.00 0.00 83 1015.9
20260901154005 85 158 2.0 5.0 0.00 0.00 0.00 83 1015.9
20260901153504 85 172 5.0 8.0 0.00 0.00 0.00 83 1015.9
20260901153004 85 199 2.0 5.0 0.00 0.00 0.00 84 1016.0
20260901152505 85 199 4.0 7.0 0.00 0.00 0.00 85 1015.9
20260901151004 85 150 2.0 5.0 0.00 0.00 0.00 84 1015.9
20260901150504 84 158 3.0 5.0 0.00 0.00 0.00 86 1015.9
20260901145005 81 129 1.0 3.0 0.00 0.00 0.00 88 1016.0
20260901143504 80 163 3.0 5.0 0.00 0.00 0.00 90 1016.1
20260901143004 79 136 2.0 3.0 0.00 0.00 0.00 89 1016.0
20260901142005 78 194 2.0 3.0 0.00 0.00 0.00 91 1016.4
20260901141505 78 185 1.0 3.0 0.00 0.00 0.00 93 1016.2
20260901140504 77 279 0.0 2.0 0.00 0.00 0.00 92 1016.5
20260901134004 75 192 1.0 2.0 0.00 0.00 0.00 96 1016.7
20260901133505 74 184 1.0 3.0 0.00 0.00 0.00 96 1016.8
20260901132505 74 77 1.0 2.0 0.00 0.00 0.00 96 1016.7
20260901131505 72 50 0.0 1.0 0.00 0.00 0.00 95 1016.6
20260901131005 71 0 0.0 0.0 0.00 0.00 0.00 95 1016.6
20260901130505 71 0 0.0 0.0 0.00 0.00 0.00 95 1016.7
20260901125506 71 0 0.0 0.0 0.00 0.00 0.00 95 1016.6
20260901124505 71 0 0.0 0.0 0.00 0.00 0.00 95 1016.4
20260901123504 71 0 0.0 0.0 0.00 0.00 0.00 95 1016.4
20260901123005 71 0 0.0 0.0 0.00 0.00 0.00 95 1016.4
20260901122005 71 0 0.0 0.0 0.00 0.00 0.00 95 1016.3
20260901121504 71 0 0.0 0.0 0.00 0.00 0.00 95 1016.4
20260901120004 71 0 0.0 0.0 0.00 0.00 0.00 95 1016.3
20260901115505 71 0 0.0 0.0 0.00 0.00 0.00 95 1016.2
20260901112504 71 0 0.0 0.0 0.00 0.00 0.00 95 1015.7
20260901112004 71 0 0.0 2.0 0.00 0.00 0.00 95 1015.8
20260901111504 71 176 2.0 2.0 0.00 0.00 0.00 95 1015.9
20260901111004 71 176 2.0 2.0 0.00 0.00 0.00 95 1015.8
20260901104504 71 243 1.0 2.0 0.00 0.00 0.00 95 1015.5
20260901103004 71 243 1.0 2.0 0.00 0.00 0.00 95 1015.4
20260901102504 71 243 0.0 0.0 0.00 0.00 0.00 95 1015.4
20260901102004 71 243 0.0 0.0 0.00 0.00 0.00 95 1015.3
20260901101004 72 243 1.0 2.0 0.00 0.00 0.00 95 1015.2
20260901095005 72 243 0.0 1.0 0.00 0.00 0.00 95 1015.4
20260901094004 72 243 0.0 2.0 0.00 0.00 0.00 95 1015.2
20260901093504 72 243 0.0 1.0 0.00 0.00 0.00 95 1015.1
20260901092004 73 243 1.0 1.0 0.00 0.00 0.00 95 1015.2
20260901090504 73 243 1.0 2.0 0.00 0.00 0.00 94 1015.3
20260901085504 73 243 2.0 2.0 0.00 0.00 0.00 95 1015.3
20260901085004 73 243 2.0 2.0 0.00 0.00 0.00 95 1015.3
20260901084504 73 243 1.0 2.0 0.00 0.00 0.00 95 1015.2
20260901083504 73 243 0.0 0.0 0.00 0.00 0.00 94 1015.2
20260901082504 73 243 0.0 0.0 0.00 0.00 0.00 94 1015.1
20260901080004 74 243 0.0 1.0 0.00 0.00 0.00 94 1015.4
20260901073004 73 242 1.0 2.0 0.00 0.00 0.00 94 1015.4
20260901072504 74 243 1.0 1.0 0.00 0.00 0.00 94 1015.3
20260901071503 74 243 1.0 1.0 0.00 0.00 0.00 94 1015.3
20260901070504 74 243 1.0 1.0 0.00 0.00 0.00 94 1015.3
20260901070004 74 243 1.0 1.0 0.00 0.00 0.00 93 1015.3
20260901064504 75 242 2.0 2.0 0.00 0.00 0.00 93 1015.3
20260901064004 75 243 1.0 2.0 0.00 0.00 0.00 93 1015.3
20260901063504 75 243 1.0 1.0 0.00 0.00 0.00 93 1015.3
20260901062504 75 243 1.0 2.0 0.00 0.00 0.00 93 1015.4
20260901062003 75 243 1.0 2.0 0.00 0.00 0.00 93 1015.5
20260901061504 75 192 1.0 2.0 0.00 0.00 0.00 93 1015.5
20260901055504 75 187 2.0 3.0 0.00 0.00 0.00 93 1015.3
20260901054504 75 187 2.0 3.0 0.00 0.00 0.00 93 1015.3
20260901054004 75 187 2.0 3.0 0.00 0.00 0.00 93 1015.3
20260901053504 75 187 2.0 3.0 0.00 0.00 0.00 93 1015.1
20260901053004 75 187 2.0 3.0 0.00 0.00 0.00 93 1015.0
20260901052504 75 187 2.0 3.0 0.00 0.00 0.00 93 1015.0
20260901052004 75 217 2.0 3.0 0.00 0.00 0.00 93 1015.1
20260901051504 75 216 1.0 2.0 0.00 0.00 0.00 93 1015.2
20260901050504 76 217 1.0 1.0 0.00 0.00 0.00 92 1015.1
20260901050004 76 217 1.0 2.0 0.00 0.00 0.00 92 1014.9
20260901045504 76 217 1.0 2.0 0.00 0.00 0.00 92 1014.9
20260901045004 76 169 1.0 1.0 0.00 0.00 0.00 93 1014.9
20260901043006 75 169 0.0 1.0 0.00 0.00 0.00 93 1014.8
20260901042006 75 169 1.0 2.0 0.00 0.00 0.00 93 1014.8
20260901040506 76 160 2.0 2.0 0.00 0.00 0.00 92 1014.8
20260901040006 76 158 1.0 3.0 0.00 0.00 0.00 92 1014.7
20260901035506 76 158 2.0 3.0 0.00 0.00 0.00 93 1014.7
20260901034006 76 147 1.0 2.0 0.00 0.00 0.00 93 1014.7
20260901033506 76 147 1.0 2.0 0.00 0.00 0.00 93 1014.8
20260901032506 76 147 1.0 1.0 0.00 0.00 0.00 93 1014.9
20260901032006 77 147 0.0 2.0 0.00 0.00 0.00 93 1015.0
20260901031505 77 147 1.0 2.0 0.00 0.00 0.00 92 1014.9
20260901030506 76 171 0.0 1.0 0.00 0.00 0.00 92 1015.1
20260901030006 76 171 1.0 2.0 0.00 0.00 0.00 92 1015.2
20260901025005 77 171 0.0 1.0 0.00 0.00 0.00 91 1014.9
20260901024506 77 171 1.0 1.0 0.00 0.00 0.00 91 1014.9
20260901023506 77 159 2.0 3.0 0.00 0.00 0.00 92 1014.7
20260901023005 77 134 3.0 3.0 0.00 0.00 0.00 92 1014.7
20260901021506 76 161 2.0 2.0 0.00 0.00 0.00 92 1014.8
20260901021005 76 161 1.0 1.0 0.00 0.00 0.00 92 1014.9
20260901015506 76 161 2.0 2.0 0.00 0.00 0.00 91 1014.6
20260901015006 77 190 1.0 2.0 0.00 0.00 0.00 90 1014.6
20260901014505 77 190 1.0 1.0 0.00 0.00 0.00 89 1014.6
20260901014005 78 190 0.0 2.0 0.00 0.00 0.00 88 1014.6
20260901013506 79 190 1.0 2.0 0.00 0.00 0.00 86 1014.6
20260901012505 79 190 0.0 2.0 0.00 0.00 0.00 87 1014.5
20260901012006 79 190 0.0 1.0 0.00 0.00 0.00 85 1014.4
20260901011505 80 190 1.0 1.0 0.00 0.00 0.00 85 1014.3
20260901011005 80 190 0.0 1.0 0.00 0.00 0.00 83 1014.2
20260901010006 80 190 1.0 2.0 0.00 0.00 0.00 83 1014.2
20260901005006 81 199 2.0 3.0 0.00 0.00 0.00 83 1014.0
20260901004505 81 173 3.0 5.0 0.00 0.00 0.00 82 1014.1
20260901002506 83 230 2.0 3.0 0.00 0.00 0.00 79 1014.1
20260901001006 84 197 3.0 3.0 0.00 0.00 0.00 77 1013.9